Temp
71 71 71 70 62 57 51 56 60 61 63 65 66 66 65 65 63 59 70 71 71 73 74 76 74 75 75 75 75 75 75 76 76 76 76 76 76 76 76 76 76 76 76 76 75 75 73 73 73
70 75 70 62 54 50 53 58 59 62 65 65 66 66 65 63 66 67 69 71 72 73 74 75 73 74 75 74 75 75 75 76 76 75 75 76 76 76 76 76 76 76 75 75 75 74 73 73 72
74 72 65 56 50 50 53 60 61 64 65 66 65 66 64 64 67 68 71 72 72 73 74 74 72 74 74 74 74 75 75 75 76 76 75 76 76 76 75 76 76 76 76 75 75 74 72 72 72
68 69 63 54 51 55 57 60 62 63 65 66 66 63 67 69 68 71 71 72 72 72 73 72 73 74 74 74 74 75 75 75 76 76 76 76 76 75 75 75 75 75 75 74 73 72 71 71 71
65 62 53 50 52 57 60 62 63 62 62 64 65 62 64 69 69 70 70 71 71 71 73 73 72 73 73 74 74 74 75 75 75 76 76 76 75 75 75 74 75 75 74 73 72 71 71 70 71
60 58 50 48 52 57 60 60 63 62 62 65 65 63 65 68 69 68 70 71 72 71 71 72 68 70 72 73 73 73 74 74 74 74 75 75 75 74 74 74 74 75 73 72 71 71 70 70 70
55 52 48 49 51 55 59 61 61 61 62 64 66 62 66 67 68 68 69 70 71 71 71 71 70 71 67 69 70 71 72 73 73 73 73 73 72 74 73 73 74 74 73 72 71 70 69 69 69
55 53 48 48 50 52 59 61 61 62 63 67 67 62 63 66 67 67 68 69 69 69 70 70 71 71 72 72 66 67 69 70 71 70 69 68 68 69 70 69 71 74 73 72 71 70 69 69 69
58 48 45 49 51 54 59 59 62 62 63 64 64 65 66 65 65 66 66 65 67 67 68 69 69 70 71 71 69 64 65 66 67 67 66 66 71 70 70 66 67 72 73 72 71 70 69 67 66
53 46 49 54 55 54 57 58 59 61 60 62 63 65 66 64 64 64 64 64 65 66 68 69 69 69 69 70 70 69 70 70 71 70 70 70 69 68 68 64 63 66 68 70 71 69 67 65 68
51 48 52 55 57 58 56 58 60 57 56 61 62 64 65 64 63 62 64 65 66 68 67 68 68 69 69 69 69 69 68 68 69 69 69 69 68 67 67 67 67 67 63 70 71 71 69 67 66
49 53 54 56 57 56 55 58 57 58 61 64 63 63 62 63 62 63 63 64 65 66 68 69 69 68 68 69 68 70 67 67 67 68 68 67 66 65 65 65 65 65 66 66 67 67 67 66 65
50 51 54 56 55 54 55 54 56 56 62 62 61 61 61 61 61 62 64 64 65 65 67 68 68 68 68 67 68 68 68 68 68 67 67 66 66 65 65 65 64 64 65 65 65 65 65 65 64
52 52 52 54 54 54 53 53 54 56 59 60 59 60 60 59 61 61 61 63 64 65 66 67 67 68 69 68 68 68 68 69 69 68 67 66 66 65 64 65 64 63 64 65 65 65 65 65 64
51 47 50 51 52 53 54 48 50 56 57 57 57 58 59 60 60 61 63 62 64 66 66 66 67 68 67 68 68 68 68 68 68 69 68 66 66 65 65 64 64 65 65 64 63 63 63 63 63
46 45 39 48 50 52 53 42 53 56 55 55 56 57 57 59 61 62 63 63 63 64 64 66 67 67 67 68 68 68 68 68 68 69 69 66 66 66 64 64 64 65 62 64 63 63 62 62 63
42 35 38 43 50 49 49 43 52 54 52 53 55 56 57 57 61 63 64 64 64 64 64 64 65 66 66 66 68 68 68 67 68 68 68 67 66 65 65 64 65 64 64 63 63 62 62 63 61
37 38 40 42 47 46 45 43 49 52 51 52 53 55 56 57 60 63 64 62 63 63 63 63 64 65 65 65 65 65 66 67 68 67 67 68 67 66 65 65 64 63 62 62 61 61 62 61 62
42 40 39 41 48 44 43 43 46 51 49 49 52 55 58 58 61 62 59 59 58 59 59 61 62 63 64 63 62 62 63 64 65 66 67 67 67 66 66 65 65 63 61 61 61 60 58 60 60
42 40 39 45 48 44 42 43 49 51 52 54 54 55 56 56 58 58 56 54 53 52 53 57 59 62 63 64 64 65 65 65 66 65 66 66 66 67 66 65 65 64 61 60 60 59 58 58 60
39 38 38 39 42 43 39 37 42 47 49 51 52 54 53 53 54 54 51 49 49 49 50 53 54 56 58 61 64 64 64 64 64 63 64 64 65 65 64 65 65 65 63 61 61 60 58 58 59
35 43 42 40 39 35 39 30 40 46 48 50 52 49 49 48 49 47 47 46 46 48 49 51 51 52 54 55 60 61 60 60 61 62 64 64 64 63 63 64 65 64 63 63 62 63 61 59 58
42 45 41 40 35 34 37 31 35 41 44 48 49 46 43 44 44 44 44 45 46 46 47 48 49 48 49 51 52 53 53 55 57 57 58 59 61 64 65 65 65 63 63 63 63 62 60 60 59
44 41 40 37 37 30 35 32 32 37 42 45 45 43 42 42 42 43 44 44 43 44 45 45 46 45 46 47 48 48 48 50 50 51 52 54 57 59 60 60 61 63 63 63 63 63 62 61 60
44 39 28 27 27 27 33 31 38 43 46 47 46 40 40 40 40 40 40 40 41 41 41 44 42 41 43 44 45 45 46 47 47 48 49 50 51 54 54 55 56 58 60 62 63 63 62 62 61
39 39 29 20 21 26 32 28 36 44 46 47 46 41 39 37 38 38 38 38 39 39 39 39 40 39 40 41 42 43 44 45 45 45 45 46 46 48 50 49 52 53 55 58 60 62 62 62 61
37 34 41 30 22 26 28 33 41 42 39 37 37 37 35 36 36 36 37 37 37 37 37 37 37 37 37 38 40 41 41 42 42 43 43 43 44 46 45 46 46 48 51 54 57 58 60 62 61
40 42 32 32 19 16 25 27 33 38 38 36 35 34 34 35 35 35 35 36 36 37 37 36 36 35 35 36 37 39 39 39 40 41 39 39 41 42 42 43 44 46 47 49 51 53 56 58 60
37 36 37 34 26 23 19 28 37 40 41 37 35 35 35 34 34 34 34 34 34 35 35 34 33 33 33 34 35 36 36 36 37 37 37 37 38 38 39 41 42 44 45 47 46 48 51 52 54
41 37 37 30 28 30 26 32 40 41 41 39 35 36 35 34 33 33 33 33 32 32 32 31 31 31 31 32 33 33 34 33 33 33 33 34 34 36 36 38 40 42 43 45 45 44 46 48 46
MSLP
1014.59 1014.11 1014.13 1014.32 1016.26 1017.77 1018.83 1019.04 1018.78 1018.54 1018.60 1018.59 1018.44 1018.38 1018.60 1018.81 1019.07 1019.66 1019.24 1019.28 1019.38 1019.39 1019.67 1019.87 1020.07 1020.29 1020.51 1020.70 1020.72 1020.88 1020.94 1021.14 1021.20 1021.45 1021.62 1021.66 1021.68 1021.72 1021.60 1021.60 1021.72 1022.00 1022.19 1022.45 1022.47 1022.49 1022.69 1022.84 1022.88
1014.76 1014.17 1014.50 1015.76 1017.42 1018.81 1019.33 1019.11 1018.92 1018.76 1018.79 1018.77 1018.63 1018.65 1018.79 1019.12 1019.03 1019.07 1019.18 1019.27 1019.32 1019.45 1019.56 1019.86 1020.22 1020.48 1020.67 1020.92 1021.04 1020.98 1021.09 1021.14 1021.32 1021.42 1021.57 1021.74 1021.84 1021.92 1021.88 1021.85 1021.77 1022.08 1022.40 1022.52 1022.66 1022.76 1022.92 1022.90 1022.89
1014.61 1014.67 1015.94 1017.26 1018.85 1019.47 1019.49 1019.28 1019.17 1018.82 1018.67 1018.79 1018.92 1018.94 1019.05 1019.24 1019.22 1019.20 1019.18 1019.26 1019.44 1019.55 1019.74 1019.99 1020.10 1020.32 1020.82 1021.17 1021.29 1021.35 1021.35 1021.39 1021.41 1021.43 1021.50 1021.67 1021.88 1022.00 1022.16 1022.16 1022.09 1022.15 1022.30 1022.53 1022.76 1022.91 1023.14 1023.16 1023.04
1015.30 1015.61 1017.48 1018.34 1019.49 1019.73 1019.70 1019.49 1019.27 1019.04 1018.80 1018.85 1019.03 1019.23 1019.22 1019.29 1019.31 1019.19 1019.20 1019.30 1019.50 1019.82 1020.00 1020.09 1020.19 1020.38 1020.59 1020.97 1021.38 1021.50 1021.53 1021.63 1021.63 1021.54 1021.57 1021.70 1021.90 1022.01 1022.21 1022.37 1022.34 1022.43 1022.58 1022.69 1022.91 1023.02 1023.17 1023.31 1023.26
1016.46 1017.60 1018.79 1019.67 1019.97 1019.89 1019.79 1019.61 1019.43 1019.31 1019.19 1019.13 1019.08 1019.48 1019.35 1019.35 1019.44 1019.36 1019.42 1019.44 1019.62 1019.90 1020.11 1020.28 1020.40 1020.55 1020.70 1020.88 1021.10 1021.51 1021.72 1021.70 1021.85 1021.84 1021.73 1021.75 1021.90 1022.04 1022.20 1022.37 1022.51 1022.65 1022.78 1023.03 1023.23 1023.25 1023.28 1023.34 1023.35
1018.00 1019.05 1020.04 1020.51 1020.35 1020.12 1019.88 1019.78 1019.49 1019.48 1019.43 1019.14 1019.15 1019.41 1019.57 1019.48 1019.50 1019.58 1019.63 1019.71 1019.78 1019.97 1020.22 1020.40 1020.63 1020.77 1020.83 1020.96 1021.06 1021.14 1021.50 1021.80 1021.91 1022.01 1022.02 1021.91 1021.89 1022.06 1022.28 1022.38 1022.52 1022.64 1022.98 1023.22 1023.32 1023.39 1023.46 1023.47 1023.48
1019.12 1020.13 1021.11 1020.99 1020.69 1020.22 1020.02 1019.71 1019.69 1019.71 1019.57 1019.45 1019.41 1019.54 1019.67 1019.68 1019.67 1019.77 1019.88 1019.83 1019.96 1020.10 1020.22 1020.35 1020.62 1020.80 1021.02 1021.09 1021.11 1021.22 1021.20 1021.48 1021.83 1022.07 1022.10 1022.12 1022.19 1022.08 1022.20 1022.35 1022.52 1022.79 1022.98 1023.17 1023.35 1023.52 1023.54 1023.52 1023.52
1020.02 1020.81 1021.50 1021.33 1020.99 1020.61 1020.21 1019.88 1019.87 1019.78 1019.71 1019.50 1019.57 1019.86 1019.96 1019.96 1019.94 1020.03 1020.08 1020.13 1020.17 1020.19 1020.27 1020.33 1020.51 1020.74 1020.91 1021.09 1021.32 1021.37 1021.43 1021.43 1021.52 1021.80 1022.18 1022.26 1022.33 1022.43 1022.33 1022.37 1022.51 1022.65 1022.98 1023.18 1023.34 1023.49 1023.49 1023.46 1023.44
1020.33 1021.32 1021.85 1021.37 1021.10 1020.58 1020.26 1020.13 1020.01 1019.97 1019.91 1019.77 1019.86 1019.91 1019.96 1019.99 1020.07 1020.12 1020.19 1020.31 1020.24 1020.24 1020.20 1020.32 1020.39 1020.58 1020.81 1020.98 1021.14 1021.45 1021.53 1021.60 1021.65 1021.73 1021.85 1022.19 1022.48 1022.57 1022.73 1022.75 1022.73 1022.52 1022.66 1022.84 1023.07 1023.27 1023.46 1023.58 1023.63
1020.68 1021.76 1021.55 1021.11 1020.90 1020.75 1020.54 1020.41 1020.34 1020.29 1020.18 1019.98 1020.03 1019.92 1019.91 1020.04 1020.17 1020.18 1020.16 1020.16 1020.11 1020.04 1020.08 1020.10 1020.17 1020.36 1020.61 1020.77 1020.98 1021.28 1021.41 1021.49 1021.52 1021.64 1021.73 1021.91 1022.18 1022.59 1022.77 1022.91 1022.94 1022.85 1022.78 1022.78 1022.84 1023.07 1023.26 1023.57 1023.65
1021.07 1021.44 1021.38 1021.09 1020.94 1020.80 1020.74 1020.63 1020.48 1020.43 1020.30 1020.05 1020.16 1020.15 1020.15 1020.12 1020.12 1020.16 1019.98 1019.83 1019.70 1019.68 1019.84 1019.81 1019.86 1020.13 1020.33 1020.44 1020.65 1020.90 1021.17 1021.35 1021.55 1021.46 1021.59 1021.76 1022.00 1022.23 1022.60 1022.79 1022.83 1022.98 1022.96 1022.85 1022.81 1022.99 1023.19 1023.34 1023.52
1021.27 1021.42 1021.34 1021.15 1021.03 1021.07 1021.00 1020.92 1020.67 1020.43 1020.12 1019.88 1020.20 1020.31 1020.26 1020.19 1020.11 1019.95 1019.63 1019.46 1019.53 1019.35 1019.22 1019.31 1019.36 1019.71 1019.96 1020.13 1020.32 1020.43 1020.70 1020.92 1021.14 1021.35 1021.36 1021.49 1021.71 1021.92 1022.08 1022.41 1022.66 1022.84 1022.84 1022.94 1022.95 1022.92 1022.97 1023.10 1023.24
1021.42 1021.63 1021.55 1021.30 1021.28 1021.31 1021.24 1021.14 1020.86 1020.59 1020.12 1020.09 1020.28 1020.24 1020.29 1020.31 1020.01 1019.61 1019.32 1019.13 1019.03 1018.87 1018.72 1018.73 1018.81 1018.97 1019.19 1019.58 1019.81 1020.06 1020.24 1020.38 1020.52 1020.85 1021.16 1021.29 1021.26 1021.34 1021.53 1021.71 1022.01 1022.31 1022.53 1022.67 1022.69 1022.77 1022.82 1022.87 1022.90
1021.70 1021.82 1021.89 1021.49 1021.49 1021.50 1021.55 1021.33 1020.97 1020.50 1020.47 1020.54 1020.57 1020.35 1020.23 1020.20 1019.77 1019.33 1019.08 1018.67 1018.56 1018.42 1018.35 1018.27 1018.22 1018.21 1018.47 1018.69 1019.03 1019.27 1019.56 1019.63 1019.92 1020.14 1020.24 1020.71 1020.82 1020.89 1021.10 1021.21 1021.39 1021.54 1021.77 1021.89 1022.11 1022.25 1022.37 1022.39 1022.45
1021.99 1022.29 1022.14 1021.71 1021.73 1021.54 1021.47 1021.68 1020.90 1020.55 1020.88 1020.92 1020.74 1020.38 1019.92 1019.39 1019.24 1019.09 1018.75 1018.55 1018.27 1017.88 1017.79 1017.69 1017.58 1017.59 1017.77 1017.93 1018.26 1018.58 1018.85 1019.21 1019.38 1019.45 1019.64 1019.84 1020.23 1020.68 1020.51 1020.84 1020.82 1020.77 1020.97 1021.40 1021.70 1021.70 1021.83 1021.92 1021.88
1022.45 1022.75 1022.73 1021.98 1021.83 1021.52 1021.58 1021.59 1021.03 1021.02 1021.17 1021.17 1020.72 1020.27 1019.81 1019.08 1018.66 1018.35 1018.27 1018.09 1017.76 1017.64 1017.57 1017.34 1017.34 1017.17 1017.13 1017.24 1017.49 1017.90 1018.28 1018.49 1018.64 1018.78 1019.07 1019.36 1019.54 1019.43 1019.92 1020.17 1020.28 1020.38 1020.49 1020.46 1020.82 1021.10 1021.30 1021.31 1021.19
1022.96 1023.14 1023.16 1022.62 1021.97 1021.83 1021.86 1021.93 1021.26 1021.14 1021.35 1021.18 1020.67 1020.12 1019.44 1018.90 1018.13 1017.61 1017.49 1017.44 1017.64 1017.57 1017.27 1016.97 1016.98 1016.77 1016.81 1016.79 1016.92 1017.26 1017.56 1017.79 1017.94 1018.21 1018.47 1018.72 1019.02 1019.29 1019.24 1019.27 1019.33 1019.77 1020.13 1020.05 1020.00 1020.34 1020.60 1020.49 1020.52
1022.80 1023.15 1023.04 1022.98 1022.40 1022.09 1022.13 1022.07 1021.78 1021.35 1021.41 1021.04 1020.36 1019.49 1018.83 1018.46 1017.78 1017.33 1017.10 1017.66 1017.36 1017.18 1017.02 1016.80 1016.57 1016.28 1016.31 1016.44 1016.60 1016.96 1017.25 1017.36 1017.58 1017.73 1017.86 1018.06 1018.24 1018.47 1018.67 1018.76 1018.72 1019.03 1019.33 1019.64 1019.66 1019.70 1019.99 1020.09 1019.82
1022.73 1022.93 1022.97 1022.91 1022.60 1022.75 1022.17 1021.70 1021.75 1021.06 1020.68 1020.36 1019.80 1018.90 1018.06 1017.91 1017.52 1017.34 1017.82 1017.66 1017.54 1017.34 1017.11 1016.71 1016.30 1016.08 1016.16 1016.41 1016.66 1016.87 1016.80 1017.06 1017.20 1017.09 1017.08 1017.13 1017.38 1017.66 1018.13 1018.27 1018.27 1018.42 1018.69 1018.83 1018.93 1018.87 1019.24 1019.17 1019.36
1022.93 1023.12 1023.11 1022.95 1022.86 1023.11 1022.40 1021.40 1020.96 1020.09 1019.36 1019.03 1018.59 1018.29 1018.03 1017.93 1017.75 1017.99 1018.24 1018.29 1018.29 1018.24 1017.82 1017.08 1016.63 1016.31 1016.13 1016.18 1016.29 1016.28 1016.32 1016.40 1016.29 1016.47 1016.64 1016.91 1016.98 1017.19 1017.35 1017.34 1017.46 1017.69 1017.83 1018.10 1018.28 1017.89 1018.77 1018.69 1018.51
1022.98 1023.20 1023.37 1023.54 1023.43 1023.18 1022.83 1020.97 1019.89 1019.18 1018.74 1018.38 1018.11 1018.15 1018.42 1018.72 1018.66 1018.71 1019.00 1019.19 1019.15 1018.93 1018.64 1018.10 1017.86 1017.26 1016.78 1016.40 1016.45 1016.53 1016.56 1016.49 1016.50 1016.71 1016.73 1016.71 1016.82 1016.91 1016.83 1016.88 1016.97 1016.97 1017.00 1017.10 1017.19 1017.00 1017.56 1017.74 1017.71
1022.91 1022.93 1023.28 1023.74 1024.18 1023.97 1023.67 1022.06 1020.23 1019.36 1018.88 1018.37 1018.06 1018.82 1019.07 1019.30 1019.50 1019.81 1019.96 1020.08 1020.22 1020.13 1019.69 1019.25 1018.88 1018.27 1017.81 1017.31 1016.93 1016.87 1017.13 1017.14 1017.23 1017.07 1016.86 1016.57 1016.46 1016.53 1016.53 1016.44 1016.38 1016.34 1016.38 1016.32 1016.36 1016.21 1016.28 1016.62 1016.52
1022.69 1022.77 1023.31 1023.96 1024.32 1024.43 1024.04 1024.00 1020.16 1019.54 1019.04 1018.64 1018.94 1019.59 1020.00 1020.29 1020.46 1020.65 1020.81 1021.05 1021.22 1020.96 1020.47 1020.26 1019.88 1019.44 1019.24 1018.73 1018.48 1018.34 1018.25 1018.32 1018.19 1017.91 1017.52 1017.27 1017.06 1016.69 1016.46 1016.25 1015.96 1015.86 1015.83 1015.68 1015.65 1015.55 1015.39 1015.61 1015.60
1022.66 1023.10 1023.73 1024.21 1024.67 1023.98 1023.54 1023.60 1020.04 1019.66 1018.83 1018.96 1019.60 1020.43 1021.00 1021.19 1021.35 1021.67 1021.56 1021.63 1021.82 1021.62 1021.19 1021.09 1020.79 1020.79 1020.50 1020.04 1019.85 1019.59 1019.50 1019.36 1019.07 1018.88 1018.50 1018.16 1017.78 1017.40 1017.00 1016.90 1016.36 1015.86 1015.51 1015.16 1014.98 1014.67 1014.77 1014.72 1014.46
1022.44 1023.08 1023.97 1024.65 1024.76 1023.46 1022.72 1022.86 1019.61 1019.18 1018.55 1019.00 1019.68 1020.96 1021.63 1021.96 1022.10 1022.26 1022.39 1022.47 1022.57 1022.36 1022.21 1022.04 1021.91 1021.73 1021.59 1021.18 1020.93 1020.87 1020.63 1020.39 1020.20 1019.97 1019.67 1019.20 1018.76 1018.23 1017.90 1017.57 1017.01 1016.31 1015.75 1015.13 1014.53 1014.04 1014.24 1013.59 1013.29
1021.84 1022.30 1022.84 1023.63 1024.23 1023.67 1023.14 1021.58 1018.97 1018.10 1018.80 1019.07 1019.62 1020.95 1022.10 1022.74 1023.11 1023.33 1023.44 1023.54 1023.52 1023.40 1023.23 1023.08 1022.96 1022.83 1022.64 1022.29 1022.01 1021.76 1021.54 1021.34 1021.11 1020.91 1020.70 1020.42 1020.04 1019.66 1019.08 1018.60 1017.74 1016.93 1016.09 1015.22 1014.62 1013.70 1013.16 1012.96 1012.65
1021.89 1021.86 1022.34 1023.54 1024.44 1024.21 1022.41 1020.21 1018.72 1018.26 1019.10 1019.88 1020.93 1022.16 1023.09 1023.60 1023.94 1024.08 1024.22 1024.25 1024.26 1024.14 1024.08 1024.02 1023.81 1023.66 1023.58 1023.24 1022.97 1022.70 1022.60 1022.32 1022.11 1021.78 1021.49 1021.18 1020.76 1020.06 1019.50 1018.97 1018.28 1017.49 1016.49 1015.65 1014.86 1014.11 1013.30 1012.52 1012.06
1020.61 1021.12 1022.41 1023.26 1023.65 1023.50 1021.71 1020.46 1018.91 1018.73 1019.29 1020.42 1021.40 1022.27 1023.27 1023.91 1024.36 1024.65 1024.82 1024.96 1025.08 1025.01 1024.74 1024.86 1024.74 1024.24 1024.39 1024.16 1023.74 1023.49 1023.44 1023.20 1022.92 1022.49 1022.11 1021.57 1021.16 1020.56 1019.88 1019.20 1018.62 1017.93 1017.02 1016.25 1015.39 1014.57 1013.75 1013.01 1011.91
1020.72 1020.97 1021.47 1021.90 1022.41 1022.36 1021.54 1019.23 1017.77 1017.98 1018.66 1019.93 1021.23 1022.16 1022.96 1023.90 1024.67 1025.10 1025.40 1025.58 1025.52 1025.73 1025.36 1025.53 1025.51 1025.18 1024.92 1024.85 1024.65 1024.31 1024.11 1023.72 1023.52 1023.07 1022.75 1022.20 1021.57 1021.05 1020.37 1019.50 1018.83 1018.18 1017.46 1016.66 1015.97 1015.31 1014.33 1013.28 1012.19
1019.92 1019.95 1020.69 1021.00 1021.53 1021.09 1020.24 1017.15 1017.40 1017.90 1018.35 1019.40 1020.93 1022.17 1023.20 1024.10 1024.88 1025.43 1025.72 1025.86 1025.95 1026.12 1025.87 1025.90 1025.97 1026.15 1026.00 1025.68 1025.17 1024.93 1024.68 1024.09 1023.77 1023.69 1023.11 1022.79 1022.04 1021.50 1020.84 1020.14 1019.44 1018.61 1017.90 1017.16 1016.18 1015.52 1014.87 1013.96 1013.37
Wind_Speed
10 7 1 5 6 5 1 1 1 3 2 2 1 1 4 2 1 1 3 7 1 9 7 6 8 8 9 7 8 9 10 10 10 8 7 8 8 9 12 11 12 11 10 9 9 10 8 8 9
6 4 5 3 6 4 2 2 1 2 1 2 1 2 3 2 2 2 2 5 7 9 9 7 8 8 8 7 7 9 9 8 8 6 8 9 9 7 10 11 12 12 10 9 8 10 7 8 9
1 4 5 5 3 4 3 1 1 2 2 2 2 2 1 2 2 2 1 6 7 8 7 6 10 11 9 7 6 6 7 6 7 6 6 10 8 9 7 10 11 11 9 9 7 8 5 6 8
6 5 5 6 3 0 1 2 1 3 3 4 1 3 2 1 1 2 2 8 8 6 6 7 10 11 11 8 6 6 6 5 6 6 5 7 7 8 9 6 8 7 8 8 7 6 5 5 8
5 4 5 4 2 2 1 1 2 3 3 4 4 1 3 1 3 0 6 7 8 7 5 6 7 9 9 9 9 6 5 6 5 4 4 7 8 9 10 9 6 6 7 8 6 5 4 4 5
5 3 5 2 0 2 2 2 1 3 3 3 3 2 1 4 2 2 5 6 5 7 5 5 5 6 8 8 8 9 6 5 4 3 4 2 8 9 10 9 6 7 6 7 5 5 3 3 3
6 4 3 2 1 3 3 5 3 1 1 3 2 4 2 3 4 3 4 3 3 5 6 6 5 6 6 7 7 8 9 8 6 5 4 6 4 5 7 9 8 7 8 7 6 5 3 2 2
5 5 3 1 2 2 4 2 0 4 1 4 1 2 3 1 3 2 2 2 2 4 5 6 6 6 6 6 6 7 7 7 9 7 6 5 5 3 3 6 9 7 8 7 7 6 5 3 2
3 5 1 3 4 2 3 3 3 3 2 2 1 0 3 5 2 2 1 2 3 5 6 6 7 7 7 7 6 6 7 6 6 7 7 5 3 3 3 3 5 6 8 9 11 10 6 4 2
5 4 7 2 3 2 2 3 2 2 6 1 1 1 4 1 3 4 5 7 8 9 8 8 8 8 7 6 7 6 6 6 6 6 6 5 4 3 4 4 6 7 5 7 6 8 7 4 3
2 5 3 2 2 1 2 3 1 1 3 3 3 4 4 2 4 6 8 8 10 7 8 9 9 8 8 7 5 4 4 4 5 7 7 6 4 3 3 3 3 3 4 4 6 5 3 4 4
4 1 4 2 2 4 2 1 5 5 7 4 3 4 4 5 6 7 9 9 8 9 10 9 10 9 9 6 6 7 5 6 5 7 8 6 4 5 5 4 4 4 3 5 5 4 5 6 6
3 0 0 4 5 4 1 4 6 4 8 7 7 6 7 7 9 8 10 9 8 10 10 11 10 11 10 10 7 8 7 7 7 7 7 6 6 7 6 6 5 5 5 5 6 6 6 7 8
3 1 3 5 3 4 2 3 1 2 2 7 7 9 7 7 8 6 6 11 9 9 10 9 11 12 11 11 11 9 8 9 8 7 8 10 8 7 7 7 7 7 7 7 7 7 7 8 8
3 2 4 4 1 4 5 4 8 4 4 7 7 8 10 10 7 9 7 10 8 8 8 9 10 11 13 13 11 9 9 8 8 8 11 11 10 9 9 7 8 8 8 9 7 8 8 8 8
4 3 1 4 1 1 6 6 8 4 6 8 9 10 8 12 9 7 7 8 7 8 8 9 7 10 12 12 10 8 8 9 9 9 8 11 12 13 10 8 8 8 6 7 8 8 8 9 9
1 2 2 8 1 2 4 3 4 4 5 9 11 12 12 10 13 10 8 7 5 6 8 9 8 11 10 10 9 9 10 9 8 8 8 10 11 10 10 8 8 8 8 8 8 8 9 9 9
6 5 4 4 4 3 6 7 11 10 4 12 12 13 13 12 15 10 9 5 5 6 6 8 7 9 8 6 6 5 6 7 7 7 8 11 10 12 10 8 8 7 7 8 7 10 7 9 9
5 3 5 2 5 3 7 10 9 12 7 9 13 15 17 12 10 7 5 6 8 5 8 7 7 5 5 2 2 4 6 5 6 8 12 12 11 12 11 8 8 8 8 9 10 8 9 8 7
5 6 4 3 1 2 7 16 17 19 18 15 16 16 14 8 8 4 6 8 9 9 10 10 7 4 3 3 2 2 2 3 4 5 8 10 10 11 10 11 9 10 7 9 10 8 7 6 6
3 4 2 6 4 4 7 10 3 2 5 6 9 12 8 8 9 6 8 10 10 12 12 12 12 11 10 5 1 1 1 1 1 1 4 5 9 10 11 11 9 9 8 9 10 9 11 10 6
6 6 3 3 2 7 3 10 5 6 7 5 10 6 5 5 5 8 9 12 11 11 11 13 13 14 13 14 7 5 4 3 4 4 3 4 4 7 8 10 11 11 8 10 10 8 11 10 11
3 5 6 4 3 2 5 5 5 4 6 10 5 5 6 8 8 9 10 10 10 11 11 10 13 15 15 14 13 9 9 6 5 6 9 10 9 10 8 9 10 9 8 10 11 10 10 10 10
8 5 3 3 2 9 10 8 4 5 8 4 4 4 4 6 7 9 9 10 11 10 11 12 13 15 14 14 15 14 12 10 9 10 8 8 7 7 10 12 10 10 10 10 10 11 13 12 11
5 7 1 3 5 7 2 9 14 6 9 6 5 6 5 5 7 9 10 10 11 13 13 11 14 15 15 15 15 15 13 12 11 11 9 11 9 9 11 13 11 9 11 12 11 11 13 12 11
10 9 5 7 5 3 3 9 8 8 2 5 4 8 7 8 7 8 9 9 10 11 12 12 13 14 14 14 14 13 14 9 8 10 9 8 8 10 13 13 13 13 13 12 11 10 10 10 11
5 10 4 2 2 0 6 8 8 6 4 5 8 8 6 6 6 7 7 8 8 10 12 12 12 13 14 14 12 13 12 13 10 11 10 8 10 10 13 14 14 14 14 14 13 9 11 12 10
6 8 5 4 5 5 5 7 11 5 5 6 8 8 6 5 5 6 7 8 8 9 10 11 11 13 12 13 12 11 12 13 12 10 13 13 12 14 14 14 14 15 14 15 14 11 12 13 10
5 6 4 3 5 5 3 9 7 10 7 12 9 10 10 7 6 5 6 7 8 8 10 10 12 13 13 12 11 10 10 11 11 11 12 12 13 14 15 15 15 15 15 14 14 15 14 14 13
11 9 11 7 6 7 2 15 1 6 5 10 12 11 7 7 7 5 5 5 6 7 9 10 11 11 11 10 10 11 11 11 11 12 12 13 13 13 14 15 15 15 15 14 14 16 16 15 17
Wind_Direction
330 319 58 42 59 66 48 62 286 345 58 329 331 117 111 81 127 313 339 192 161 150 155 154 151 149 138 140 121 138 141 142 140 148 141 130 129 118 118 127 117 103 108 105 123 105 66 59 52
313 338 44 77 81 75 292 277 58 341 35 127 19 346 56 46 294 298 125 176 162 153 153 150 145 136 133 135 130 136 142 147 150 169 165 158 141 136 133 124 119 115 101 112 102 92 66 38 28
9 34 71 80 100 131 140 289 12 320 337 54 77 46 4 17 312 281 228 156 147 151 155 158 155 146 141 137 138 139 143 155 159 164 148 151 141 134 115 133 125 131 130 118 121 93 79 52 27
9 14 45 73 85 67 101 304 287 350 14 44 106 37 306 122 250 290 139 151 148 154 159 165 168 153 151 152 165 165 158 166 167 169 174 143 159 159 144 133 135 121 132 126 116 116 97 65 49
31 48 56 76 34 321 336 325 335 30 6 355 351 47 294 16 348 99 152 157 158 163 168 182 185 153 156 162 164 174 179 169 188 181 191 181 167 180 159 149 157 159 136 121 128 119 112 95 84
43 88 60 117 180 309 286 353 327 44 347 331 44 2 284 316 354 183 164 169 167 167 173 178 178 166 167 175 175 170 179 184 188 220 237 184 153 165 175 161 144 153 146 144 144 135 118 94 88
94 69 131 142 85 31 334 328 63 110 15 358 303 355 303 26 352 151 172 167 175 177 180 187 188 190 189 192 188 189 181 183 194 212 235 287 42 182 170 166 161 168 166 168 166 166 157 137 108
96 87 93 286 152 146 336 20 146 59 11 321 13 39 328 309 338 134 157 169 195 202 204 199 199 203 203 205 210 203 205 198 186 192 228 257 306 356 216 173 198 192 196 196 192 192 198 201 167
115 67 135 218 163 193 352 68 355 311 328 23 17 111 295 314 132 141 178 240 235 233 226 212 211 210 211 212 213 223 220 216 205 196 200 225 248 280 297 264 280 223 218 218 202 197 209 239 265
83 104 208 215 185 163 17 63 288 13 343 25 108 300 333 111 176 200 223 233 238 233 233 222 218 215 211 217 217 221 223 224 217 213 207 202 200 229 255 273 292 292 278 225 216 208 195 236 261
125 157 200 258 251 157 128 342 292 96 321 237 290 301 306 297 247 236 241 236 236 236 235 220 223 217 214 216 214 218 222 222 230 217 213 210 204 201 222 255 261 270 283 262 236 253 254 246 256
99 139 162 273 4 355 336 283 301 184 230 249 276 282 282 292 275 256 251 245 238 235 238 223 221 214 216 215 212 226 217 219 223 230 218 207 208 209 210 215 235 244 241 254 248 237 238 249 254
105 240 102 296 303 263 313 256 245 229 262 306 309 297 290 296 278 270 263 262 243 245 245 230 214 214 214 212 213 220 225 228 222 219 229 219 219 217 212 216 213 224 230 238 244 244 248 249 252
145 30 310 283 297 285 243 266 285 279 28 320 328 303 294 270 269 293 284 268 251 250 248 237 221 218 212 214 211 214 220 222 223 220 214 220 222 220 221 223 222 219 220 226 232 240 246 251 254
99 7 316 258 198 251 156 278 245 252 5 317 317 306 303 282 259 250 262 277 258 249 248 235 230 220 213 216 214 214 213 213 219 223 224 212 214 234 220 230 230 227 219 227 234 237 237 248 253
92 50 19 291 337 267 139 269 270 62 38 314 309 304 290 290 279 266 268 267 260 261 253 259 232 220 219 218 213 215 217 216 220 220 220 219 219 211 214 225 234 234 221 216 223 231 244 247 247
262 203 196 315 280 236 170 250 277 301 20 314 305 300 293 289 293 278 264 253 288 266 267 263 236 239 221 218 214 213 217 217 221 223 223 224 221 222 218 218 232 221 234 228 219 233 233 244 246
191 188 185 224 303 345 280 246 266 280 271 275 282 279 281 278 271 279 293 9 282 282 282 277 258 240 222 214 207 211 217 223 224 221 222 224 222 226 224 232 228 209 215 231 226 232 231 246 252
104 151 183 226 266 298 256 275 268 270 263 259 263 267 272 273 270 283 26 354 350 0 326 301 283 259 203 177 178 214 226 217 221 220 224 222 223 219 223 234 237 218 218 231 226 228 236 243 243
253 251 249 282 341 274 298 292 280 257 258 248 256 271 271 284 298 12 12 29 26 8 356 359 340 302 226 201 198 191 176 204 223 227 230 233 230 228 222 229 232 226 214 226 232 193 236 243 207
208 202 232 246 331 289 325 285 240 282 248 246 248 254 294 291 305 357 50 34 24 23 12 24 21 31 26 340 260 17 12 7 334 269 256 234 234 230 224 234 236 236 220 232 226 206 209 239 224
206 196 181 111 359 279 36 291 281 247 260 268 280 342 317 341 53 59 45 37 23 17 22 27 28 29 26 23 38 46 36 10 8 348 334 304 237 241 238 238 240 242 241 242 240 222 225 222 242
238 146 153 167 206 315 198 263 276 151 270 289 1 33 41 58 69 68 57 45 31 18 31 28 34 34 27 35 39 43 46 28 16 13 14 9 358 353 315 271 262 255 251 249 250 238 225 224 235
154 98 85 98 174 254 209 184 228 196 192 237 134 90 87 80 72 55 56 52 40 30 31 31 35 34 27 34 36 41 38 25 25 11 5 357 355 356 3 353 345 325 290 269 259 251 242 233 231
171 135 224 237 205 238 313 201 247 260 266 220 225 153 130 86 72 63 48 45 41 36 32 34 31 32 24 30 33 30 30 30 28 17 5 360 351 354 352 347 339 331 324 317 283 262 253 246 242
186 184 181 206 201 257 77 230 248 219 222 214 184 136 102 81 66 59 54 48 44 41 37 35 35 33 24 25 26 25 24 24 24 18 7 1 353 343 339 336 333 331 327 319 314 302 271 262 258
169 209 159 27 57 359 229 278 282 250 106 97 107 99 89 83 81 75 58 47 45 45 40 33 33 32 24 22 18 21 19 15 9 8 5 355 347 342 341 338 335 333 331 328 325 314 304 283 259
163 142 155 189 182 246 271 267 234 259 182 153 149 143 141 136 106 79 62 50 38 39 47 33 32 38 23 16 16 17 12 8 360 0 359 355 346 343 339 339 338 334 335 335 333 324 318 315 305
170 198 225 152 145 182 256 254 217 228 190 185 175 168 162 142 122 97 71 49 46 35 46 36 24 25 22 13 9 12 10 8 360 360 354 350 344 343 339 337 334 333 333 335 333 327 322 322 315
217 209 191 196 187 234 197 259 3 239 213 165 174 166 148 132 122 106 94 77 55 38 42 36 30 19 12 5 10 9 4 6 6 354 352 346 343 341 339 336 331 330 329 329 332 329 324 328 322